Temperature
12 12 12 12 12 12 12 12 12 12 12 11 11 11 11 11 11 11 11 11 11 11 11 11 11 11 11 11 11 11 11 11 11 11 11 11 11 11
12 12 12 12 12 11 11 11 11 12 12 11 11 11 11 10 11 10 10 11 11 11 11 11 11 11 11 11 11 11 11 11 11 11 11 11 11 11
12 12 12 11 11 11 11 11 11 11 11 11 11 11 10 10 10 10 10 10 10 10 11 11 11 11 10 10 10 10 10 10 10 10 10 10 10 10
12 12 11 11 11 11 11 11 11 11 11 11 11 10 10 10 10 10 10 10 10 10 10 10 11 10 10 10 10 10 10 10 10 10 10 10 10 10
12 11 11 11 11 11 11 11 11 11 11 10 10 10 10 10 10 10 10 10 10 10 10 10 10 10 10 10 10 10 10 10 10 10 10 10 10 10
11 11 11 11 11 11 10 10 10 10 10 10 10 10 10 10 10 10 10 10 10 10 10 10 10 10 10 10 10 10 10 10 10 9 9 9 9 9
11 11 11 11 11 11 10 10 10 10 10 10 10 10 10 10 10 9 9 9 9 9 9 9 9 9 9 9 9 9 9 9 9 9 9 9 9 9
11 11 11 11 10 10 10 10 10 10 10 10 10 10 10 10 9 9 9 9 9 9 9 9 9 9 9 9 9 9 9 9 9 9 9 9 9 9
11 10 10 10 10 10 10 10 10 10 10 9 9 10 10 10 9 9 9 9 9 9 9 8 9 8 8 9 9 9 9 9 9 9 9 9 9 9
10 10 10 10 10 10 10 9 9 9 9 9 9 9 9 9 9 9 9 9 9 9 8 8 8 8 8 8 9 9 9 9 9 8 8 8 8 8
10 10 10 10 10 10 9 9 9 9 9 9 9 9 9 9 9 9 9 8 8 8 8 8 8 8 8 8 8 8 8 8 8 8 8 8 8 8
9 9 10 9 9 9 9 9 9 9 9 9 9 9 9 9 9 9 8 8 8 8 8 8 7 7 7 8 8 8 8 8 8 8 8 8 8 7
9 9 9 9 9 9 9 8 9 9 8 8 8 8 8 9 9 9 8 8 8 8 8 8 7 7 7 7 7 8 8 7 7 7 7 8 8 7
8 9 9 9 9 9 8 8 8 8 8 8 8 8 8 8 8 8 8 8 8 8 8 8 7 7 7 7 7 7 7 7 7 7 7 7 7 7
8 8 8 8 8 8 8 8 8 8 7 7 7 8 8 8 8 8 8 8 8 8 8 7 7 7 7 7 7 7 7 7 7 7 6 6 7 7
8 8 8 8 8 8 8 8 7 7 7 7 7 7 7 7 7 7 7 7 7 7 7 7 7 7 7 6 6 6 6 6 6 6 6 6 6 6
7 7 7 7 7 7 7 7 7 7 7 7 7 7 7 7 7 7 7 7 7 7 7 7 7 7 6 6 6 6 6 6 6 6 6 6 6 6
7 6 6 7 7 7 7 7 7 7 6 6 6 6 6 6 6 6 6 6 6 6 6 6 6 6 6 6 6 6 5 5 5 5 5 5 5 5
6 6 6 6 6 6 6 6 6 6 6 6 6 6 6 6 6 6 6 6 6 6 6 5 5 5 5 5 6 6 6 5 5 5 5 5 5 5
6 6 6 5 6 6 6 6 6 6 6 6 6 5 5 5 5 5 5 5 5 5 5 5 5 5 5 5 5 5 5 5 5 4 4 4 4 4
5 5 5 5 5 5 5 5 5 5 5 5 5 5 5 5 5 5 5 5 5 4 4 4 4 5 5 4 4 5 5 5 5 4 4 4 4 4
5 5 5 5 5 5 5 5 5 5 5 5 5 4 4 4 4 4 4 4 4 4 4 4 4 4 4 4 4 4 4 4 4 4 4 4 3 3
5 5 5 5 5 4 4 4 4 4 4 4 4 4 4 4 4 4 4 3 3 3 3 3 3 3 3 3 3 3 3 3 3 3 3 3 3 3
Wind_Speed
1 1 1 1 1 2 2 2 2 2 1 0 0 1 1 2 2 2 2 5 4 4 5 5 5 5 5 5 5 5 5 5 5 5 5 5 6 5
1 2 2 2 1 2 2 2 2 2 2 0 0 0 1 1 2 2 2 5 4 4 4 4 4 4 3 4 4 4 4 4 4 4 4 5 5 5
2 2 2 2 2 2 2 2 2 2 2 2 1 1 1 0 1 1 1 1 3 4 3 3 3 3 3 3 3 3 3 3 3 3 4 4 5 4
3 3 3 2 2 2 2 2 2 3 3 3 2 2 1 1 0 0 1 1 1 4 3 2 2 2 1 2 2 2 2 2 2 2 3 4 4 4
4 4 4 3 3 3 3 3 3 3 3 3 3 2 2 1 1 1 1 0 1 2 3 2 1 1 0 1 1 2 2 2 2 2 2 3 3 3
4 4 4 4 4 3 3 3 3 4 4 4 4 3 3 3 2 2 1 1 1 1 1 1 2 2 2 1 1 2 2 2 2 2 2 2 2 1
4 4 4 3 2 3 3 3 4 4 4 4 4 4 3 3 3 2 2 2 2 1 1 1 2 2 2 3 3 3 3 3 3 2 2 2 1 1
5 5 4 4 4 4 3 4 5 6 5 5 5 5 6 5 3 3 3 3 3 2 3 2 2 2 2 2 2 4 4 4 4 4 3 3 2 2
5 5 4 4 5 5 4 5 5 6 7 7 7 7 6 5 5 5 5 5 4 2 3 3 3 3 3 2 3 5 5 4 4 5 4 4 3 3
5 6 5 5 4 5 5 5 5 6 6 7 7 6 5 5 6 6 5 4 3 3 3 4 3 4 3 3 5 5 5 5 5 5 5 5 5 5
5 6 5 6 2 4 6 6 6 5 4 5 5 4 3 4 4 4 5 4 4 4 4 4 4 4 4 4 5 7 7 6 6 6 6 6 7 7
5 5 4 4 3 4 6 6 6 5 4 5 5 5 5 5 7 7 6 6 5 4 4 4 4 4 3 4 3 5 6 7 8 7 7 7 7 6
5 5 4 4 4 6 7 6 6 6 5 6 5 5 5 5 6 7 6 6 6 5 4 4 4 5 4 3 3 4 4 5 6 7 8 8 8 7
5 5 3 4 6 7 6 5 5 5 5 5 5 5 5 5 5 6 7 7 6 6 5 6 5 5 5 5 4 4 4 5 5 5 5 7 9 10
5 4 4 5 7 7 7 6 6 5 5 5 6 5 5 5 4 4 5 5 5 5 5 7 6 6 6 6 5 4 4 4 5 5 5 5 5 5
5 5 6 7 8 6 6 6 5 5 5 6 6 5 4 4 4 4 4 4 4 4 5 6 6 6 6 6 5 5 5 4 4 5 5 5 5 6
5 4 4 4 5 5 5 5 5 5 5 5 5 5 4 4 4 4 4 5 5 5 4 4 5 5 6 6 6 6 5 5 5 5 5 5 5 6
5 5 5 5 5 5 5 5 5 5 5 5 5 5 5 5 5 4 4 5 5 5 4 3 3 4 5 5 7 7 6 5 5 5 5 6 6 6
5 6 6 6 6 5 5 5 5 5 5 5 5 6 5 5 5 5 5 5 5 5 5 4 4 5 6 7 5 8 7 5 5 5 6 6 7 6
6 6 6 6 6 6 5 5 5 4 4 5 5 5 6 6 5 6 6 6 5 5 5 5 6 6 7 6 5 4 9 7 6 6 5 5 6 6
6 6 6 6 6 6 5 5 5 5 5 5 5 5 5 5 6 6 6 6 6 6 6 6 5 5 5 4 5 5 5 8 7 6 5 5 6 6
6 6 6 6 6 6 5 5 5 5 6 6 6 6 5 5 6 6 6 6 6 6 6 5 3 4 5 6 7 7 6 5 7 9 8 7 5 5
6 6 6 6 5 5 5 6 6 6 6 6 6 6 5 5 6 6 6 6 5 5 5 4 4 4 6 6 7 7 7 6 5 5 6 8 10 9
Wind_Direction
237 224 232 232 250 258 254 258 267 269 285 78 101 59 43 45 56 54 73 92 90 81 80 80 77 75 80 80 76 65 64 66 65 59 61 61 58 58
249 256 246 236 233 227 243 260 264 266 273 281 246 160 60 67 50 35 60 104 106 96 90 86 83 76 86 89 80 73 72 68 64 62 62 60 57 60
225 235 235 242 235 238 248 247 244 239 238 260 256 222 188 101 59 40 39 102 108 111 102 92 90 85 78 95 87 86 90 80 65 69 71 66 61 58
236 235 232 223 238 248 247 243 234 229 224 238 239 240 239 185 101 344 25 84 111 115 119 108 98 93 83 87 94 107 114 108 87 86 78 71 64 60
235 239 237 229 233 237 239 243 239 230 225 228 236 236 229 211 216 233 232 147 136 128 141 145 143 150 134 100 103 119 135 139 128 120 100 82 66 57
237 240 241 238 244 249 245 246 243 236 228 228 228 226 221 214 218 226 239 221 227 138 133 164 169 181 193 203 192 172 162 157 157 154 139 119 93 66
236 242 241 242 272 261 255 251 250 245 235 230 227 231 228 219 226 229 234 226 241 237 231 218 206 211 205 211 212 201 189 183 180 183 176 168 163 167
237 239 235 226 230 227 244 259 257 246 241 238 235 232 233 232 228 224 228 233 247 225 243 241 238 245 238 232 179 189 201 203 202 199 201 199 201 203
239 240 235 230 232 240 228 232 241 243 247 249 246 245 243 233 225 228 234 239 248 231 245 249 242 248 239 211 167 190 204 208 212 212 212 213 217 221
237 243 239 235 232 247 241 240 246 243 238 244 253 255 251 239 232 236 240 241 250 225 228 251 243 248 240 215 177 192 204 210 212 215 216 220 225 229
235 237 243 241 226 253 247 246 249 244 226 237 267 275 266 241 230 221 217 222 239 232 224 243 244 245 244 228 192 191 202 208 212 218 224 227 232 231
240 236 230 248 223 240 243 247 253 254 244 233 235 235 234 214 210 222 224 230 239 236 211 227 236 237 237 224 217 204 205 208 210 215 222 225 231 234
244 243 235 221 232 241 253 248 255 262 247 240 238 234 229 224 218 227 230 234 240 243 212 215 233 229 239 238 232 221 215 215 211 214 215 216 220 230
250 253 250 223 232 235 240 246 250 253 247 243 240 237 233 232 229 228 230 233 246 253 227 220 241 238 238 241 241 222 222 222 222 223 220 209 214 219
253 260 257 240 238 233 228 234 233 237 239 242 242 244 244 241 233 227 229 231 238 246 240 232 237 237 241 245 244 235 236 232 226 229 229 224 222 221
251 238 228 230 234 233 225 227 236 240 242 243 247 246 243 233 228 224 224 220 229 235 236 236 236 235 239 243 242 239 234 226 223 229 231 235 233 229
251 247 244 239 239 237 235 232 233 235 240 244 244 243 235 230 230 228 228 225 234 234 225 226 229 231 240 243 240 236 232 233 230 228 233 239 239 234
237 242 243 241 240 242 240 236 234 233 237 240 240 239 235 230 226 224 229 229 234 239 234 222 220 230 238 245 238 239 238 238 237 230 233 242 247 240
233 242 244 245 247 247 245 244 245 245 241 239 239 239 238 233 226 225 227 235 240 241 237 226 225 234 243 249 224 216 236 237 235 238 237 244 252 253
238 243 244 246 247 248 247 247 250 249 243 241 243 243 238 232 228 229 228 232 238 242 240 233 232 237 249 261 260 235 220 234 233 237 243 252 259 258
245 246 247 248 248 248 248 246 245 246 247 244 241 242 242 238 237 237 235 230 234 238 241 242 242 243 258 262 255 247 230 223 236 246 246 249 257 256
250 251 249 247 246 245 244 244 244 243 245 244 243 239 236 236 236 238 240 236 234 236 242 246 235 232 240 244 251 256 253 237 231 237 242 241 250 251
250 250 249 249 248 245 246 245 244 244 243 244 241 240 239 239 237 235 237 238 239 239 240 240 236 236 243 246 253 257 256 252 247 243 247 238 239 248
Height
1539 1539 1539 1538 1538 1538 1538 1539 1539 1538 1538 1538 1537 1536 1535 1534 1533 1533 1533 1532 1531 1531 1531 1530 1530 1530 1530 1529 1529 1529 1529 1529 1529 1528 1528 1528 1527 1527
1537 1538 1537 1537 1537 1536 1536 1537 1537 1537 1537 1537 1536 1535 1535 1533 1533 1532 1532 1531 1531 1530 1530 1530 1529 1529 1529 1529 1528 1528 1528 1528 1528 1528 1528 1527 1527 1526
1536 1536 1536 1536 1535 1535 1535 1535 1535 1535 1535 1535 1535 1535 1534 1533 1532 1531 1531 1531 1530 1529 1529 1529 1528 1528 1527 1528 1527 1527 1527 1527 1527 1527 1527 1527 1526 1526
1534 1534 1534 1534 1534 1534 1533 1534 1534 1534 1534 1533 1533 1533 1533 1532 1531 1530 1530 1530 1529 1528 1528 1527 1527 1527 1527 1526 1526 1526 1526 1526 1526 1526 1526 1526 1525 1525
1532 1532 1532 1532 1532 1532 1532 1532 1532 1532 1531 1531 1531 1531 1531 1530 1530 1529 1529 1528 1528 1527 1527 1526 1526 1525 1525 1525 1525 1524 1524 1524 1524 1524 1524 1524 1524 1524
1530 1530 1530 1530 1530 1530 1530 1530 1530 1529 1529 1529 1529 1529 1528 1528 1528 1528 1527 1527 1527 1526 1525 1525 1524 1524 1523 1523 1523 1523 1522 1523 1523 1523 1523 1523 1523 1523
1527 1527 1527 1527 1527 1527 1527 1526 1527 1527 1526 1526 1526 1526 1526 1526 1526 1525 1525 1525 1525 1524 1524 1523 1523 1522 1522 1521 1521 1521 1521 1521 1521 1521 1521 1521 1521 1521
1524 1524 1524 1524 1523 1523 1523 1523 1523 1523 1523 1523 1523 1523 1523 1523 1523 1523 1523 1523 1523 1523 1522 1522 1521 1521 1520 1520 1519 1519 1519 1518 1519 1519 1519 1519 1519 1519
1521 1521 1520 1520 1520 1520 1520 1520 1519 1519 1520 1520 1520 1520 1520 1520 1520 1520 1520 1520 1520 1520 1520 1519 1519 1518 1518 1517 1516 1516 1516 1516 1516 1516 1517 1517 1517 1517
1517 1517 1517 1517 1517 1517 1516 1516 1516 1516 1516 1516 1517 1516 1517 1517 1517 1517 1517 1517 1517 1517 1517 1517 1516 1515 1515 1514 1513 1513 1513 1513 1513 1513 1514 1514 1514 1514
1513 1513 1513 1513 1513 1513 1513 1513 1513 1512 1512 1512 1512 1512 1512 1513 1513 1514 1514 1514 1514 1513 1513 1513 1513 1513 1512 1511 1511 1510 1510 1510 1510 1511 1511 1511 1511 1511
1509 1509 1509 1509 1509 1509 1509 1509 1509 1508 1508 1508 1508 1509 1509 1509 1509 1510 1510 1510 1510 1510 1510 1510 1509 1509 1509 1508 1508 1507 1507 1507 1507 1507 1508 1508 1508 1508
1505 1505 1505 1505 1505 1505 1505 1505 1505 1504 1504 1504 1504 1504 1505 1505 1505 1506 1506 1506 1506 1506 1506 1506 1506 1506 1506 1505 1504 1504 1504 1504 1504 1504 1504 1504 1505 1505
1500 1500 1501 1501 1501 1501 1501 1501 1501 1501 1501 1501 1500 1501 1501 1501 1501 1501 1502 1502 1502 1502 1502 1502 1502 1502 1502 1502 1501 1500 1500 1500 1500 1500 1500 1500 1501 1501
1496 1496 1496 1496 1496 1496 1496 1496 1496 1496 1496 1496 1496 1496 1496 1497 1497 1497 1497 1497 1497 1497 1497 1497 1497 1497 1497 1497 1497 1497 1497 1496 1497 1497 1497 1497 1496 1497
1491 1491 1491 1491 1492 1492 1492 1492 1492 1492 1492 1492 1492 1492 1492 1492 1492 1492 1493 1492 1493 1492 1492 1492 1492 1493 1492 1492 1493 1492 1492 1492 1492 1493 1493 1493 1493 1492
1486 1486 1487 1487 1487 1487 1487 1487 1487 1487 1487 1487 1487 1487 1487 1487 1487 1488 1488 1488 1488 1488 1488 1488 1488 1488 1488 1488 1488 1488 1488 1488 1488 1488 1488 1488 1489 1488
1482 1482 1482 1482 1482 1482 1482 1482 1482 1482 1482 1482 1482 1482 1483 1482 1483 1483 1483 1484 1484 1483 1483 1483 1483 1483 1484 1483 1484 1483 1483 1484 1484 1484 1484 1484 1484 1484
1477 1477 1477 1477 1477 1477 1477 1477 1477 1477 1477 1477 1478 1478 1478 1478 1478 1478 1478 1478 1479 1479 1479 1479 1479 1479 1479 1479 1478 1478 1479 1478 1478 1479 1479 1479 1479 1479
1471 1471 1472 1472 1472 1472 1472 1472 1472 1472 1472 1472 1472 1473 1472 1473 1473 1473 1473 1473 1473 1473 1474 1474 1474 1474 1474 1474 1474 1473 1473 1473 1473 1473 1473 1473 1474 1474
1466 1466 1466 1466 1466 1467 1467 1467 1467 1467 1467 1467 1467 1467 1467 1467 1467 1467 1467 1467 1468 1468 1468 1468 1468 1469 1468 1469 1468 1468 1468 1467 1468 1468 1468 1468 1468 1468
1461 1461 1461 1461 1461 1461 1462 1462 1462 1462 1462 1462 1462 1462 1462 1462 1462 1462 1462 1462 1462 1462 1462 1462 1463 1463 1463 1463 1462 1463 1463 1463 1462 1462 1463 1463 1462 1462
1456 1456 1456 1456 1456 1456 1456 1456 1457 1457 1457 1456 1456 1456 1456 1456 1456 1457 1457 1456 1456 1456 1456 1456 1456 1457 1457 1457 1457 1457 1457 1457 1457 1457 1457 1457 1457 1457